Hlavní strana
METAR-TAF:

METAR-TAF

Letiště :

Pikeville, Kentucky, Spojené státy americké

zeměpisná šířka: 37-33-42N, zeměpisná délka: 082-33-59W, výška: 449 m

Aktuální stav počasí

Zpráva byla vytvořena před 31 minutami, v 02:10 UTC
Bezvětří
Teplota 1°C
Vlhkost vzduchu 75%
Tlak 1021 hPa
Viditelnost: 16.1 km
Polojasno ve výšce 4500 ft

METAR: KPBX 220210Z AUTO 00000KT 10SM SCT045 01/M03 A3014 RMK AO2 T00061030

Čas: 22:41 (02:41 UTC)


TAF: chybějící

Stav a předpovědi počasí z více než 4 000 letišť (zprávy METAR a TAF).

Červené a žluté tečky na mapě představují dostupné meteorologické stanice.

Když kurzor umístíte na tečku, zobrazí se název stanice.

Pak kliknutím zobrazíte stav a předpověď počasí.

Chcete-li změnit mapu, kliknutím na zelené tlačítko se znaménkem +mapu přiblížíte, kliknutím na zelené tlačítko se znaménkem – mapu oddálíte a kliknutím na zelené šipky přejdete na sousední mapy.


METAR-TAF: